FW7522 Weather Reports


Display with metric or nautical units.
time (UTC)temp
F
wind
direction
speed
MPH
gust
MPH
rain 1hr
in
rain 24hr
in
rain mn
in
humidity
%
barometer
mb
20200707201516 53 196 8.0 0.0 0.00 0.02 0.02 84 1014.3
20200707200532 53 188 1.0 0.0 0.00 0.02 0.02 81 1014.7
20200707195614 54 171 4.0 0.0 0.00 0.02 0.02 81 1014.7
20200707194631 54 166 2.0 0.0 0.00 0.02 0.02 81 1014.7
20200707193716 55 198 5.0 0.0 0.00 0.02 0.02 82 1014.7
20200707192815 55 167 0.0 0.0 0.00 0.02 0.02 81 1014.7
20200707191916 54 183 1.0 0.0 0.00 0.02 0.02 81 1014.7
20200707190918 54 178 3.0 0.0 0.00 0.02 0.02 80 1014.7
20200707190017 55 171 5.0 0.0 0.00 0.02 0.02 78 1014.7
20200707185016 55 220 5.0 0.0 0.00 0.02 0.02 78 1014.7
20200707184114 55 231 8.0 0.0 0.00 0.02 0.02 78 1014.3
20200707183213 54 191 5.0 0.0 0.00 0.02 0.02 78 1014.3
20200707182216 54 216 6.0 0.0 0.00 0.02 0.02 80 1014.3
20200707181231 54 223 6.0 0.0 0.00 0.02 0.02 81 1014.3
20200707180214 54 244 5.0 0.0 0.00 0.02 0.02 83 1014.3
20200707175214 53 223 6.0 0.0 0.00 0.02 0.02 83 1014.3
20200707174315 53 246 6.0 0.0 0.00 0.02 0.02 83 1014.3
20200707173415 52 225 6.0 0.0 0.00 0.02 0.02 85 1014.3
20200707172415 52 218 7.0 0.0 0.00 0.02 0.02 85 1014.3
20200707171514 52 230 10.0 0.0 0.00 0.02 0.02 84 1014.3
20200707170517 52 223 9.0 0.0 0.01 0.02 0.02 85 1013.9
20200707165615 52 216 9.0 0.0 0.01 0.02 0.02 85 1013.9
20200707164715 51 210 11.0 0.0 0.02 0.02 0.02 87 1013.9
20200707163802 51 244 8.0 0.0 0.02 0.02 0.02 88 1013.9
20200707162804 51 204 5.0 0.0 0.02 0.02 0.02 87 1013.9
20200707161902 51 246 9.0 0.0 0.02 0.02 0.02 87 1013.9
20200707160904 51 243 7.0 0.0 0.01 0.01 0.01 85 1013.9
20200707155918 52 246 5.0 0.0 0.00 0.00 0.00 83 1013.9
20200707155004 52 235 7.0 0.0 0.00 0.00 0.00 81 1013.9
20200707154101 53 185 2.0 0.0 0.00 0.00 0.00 78 1013.9
20200707153103 54 225 8.0 0.0 0.00 0.00 0.00 74 1014.3
20200707152120 54 205 1.0 0.0 0.00 0.00 0.00 72 1013.9
20200707151120 54 154 1.0 0.0 0.00 0.00 0.00 71 1013.9
20200707150103 54 152 1.0 0.0 0.00 0.00 0.00 71 1013.5
20200707145203 55 125 5.0 0.0 0.00 0.00 0.00 69 1013.5
20200707144217 55 104 4.0 0.0 0.00 0.00 0.00 68 1013.5
20200707143302 55 91 3.0 0.0 0.00 0.00 0.00 68 1013.5
20200707142402 55 90 2.0 0.0 0.00 0.00 0.00 69 1013.2
20200707141403 55 123 2.0 0.0 0.00 0.00 0.00 68 1013.2
20200707140503 55 248 2.0 0.0 0.00 0.00 0.00 67 1013.2
20200707135517 55 179 2.0 0.0 0.00 0.00 0.00 68 1012.8
20200707134601 55 135 0.0 0.0 0.00 0.00 0.00 70 1012.8
20200707133604 54 252 1.0 0.0 0.00 0.00 0.00 74 1012.4
20200707132603 53 235 1.0 0.0 0.00 0.00 0.00 77 1012.4
20200707131704 53 239 3.0 0.0 0.00 0.00 0.00 77 1012.0
20200707130717 52 225 3.0 0.0 0.00 0.00 0.00 78 1012.0
20200707125819 53 263 1.0 0.0 0.00 0.00 0.00 76 1012.0
20200707124903 53 292 0.0 0.0 0.00 0.00 0.00 75 1012.4
20200707124004 53 267 1.0 0.0 0.00 0.00 0.00 74 1012.0
20200707123102 53 225 4.0 0.0 0.00 0.00 0.00 73 1012.0
20200707122104 53 232 2.0 0.0 0.00 0.00 0.00 72 1012.0
20200707121117 54 315 0.0 0.0 0.00 0.00 0.00 71 1011.6
20200707120204 54 247 4.0 0.0 0.00 0.00 0.00 70 1012.0
20200707115204 53 193 0.0 0.0 0.00 0.00 0.00 73 1012.0
20200707114304 53 289 0.0 0.0 0.00 0.00 0.00 74 1012.0
20200707113402 53 240 1.0 0.0 0.00 0.00 0.00 72 1011.6
20200707112404 53 225 3.0 0.0 0.00 0.00 0.00 71 1011.6
20200707111502 54 247 1.0 0.0 0.00 0.00 0.00 71 1011.6
20200707110501 53 247 2.0 0.0 0.00 0.00 0.00 70 1012.0
20200707105519 53 211 3.0 0.0 0.00 0.00 0.00 72 1012.0
20200707104503 54 225 3.0 0.0 0.00 0.00 0.00 70 1012.0
20200707103503 53 225 4.0 0.0 0.00 0.00 0.00 70 1012.0
20200707102603 53 233 3.0 0.0 0.00 0.00 0.00 70 1012.0
20200707101701 54 247 1.0 0.0 0.00 0.00 0.00 68 1012.0
20200707100704 54 238 1.0 0.0 0.00 0.00 0.00 69 1012.0
20200707095719 53 250 2.0 0.0 0.00 0.00 0.00 69 1011.6
20200707094704 54 246 4.0 0.0 0.00 0.00 0.00 67 1012.0
20200707093703 54 225 3.0 0.0 0.00 0.00 0.00 66 1012.0
20200707092703 55 218 3.0 0.0 0.00 0.00 0.00 67 1012.0
20200707091703 55 285 1.0 0.0 0.00 0.00 0.00 65 1012.0
20200707090718 55 254 1.0 0.0 0.00 0.00 0.00 65 1012.0
20200707085718 55 247 1.0 0.0 0.00 0.00 0.00 63 1011.6
20200707084700 55 247 4.0 0.0 0.00 0.00 0.00 64 1012.0
20200707083703 55 230 4.0 0.0 0.00 0.00 0.00 64 1012.0
20200707082804 55 272 1.0 0.0 0.00 0.00 0.00 62 1011.6
20200707081902 57 244 2.0 0.0 0.00 0.00 0.00 59 1012.0
20200707080902 57 223 2.0 0.0 0.00 0.00 0.00 59 1011.6
20200707075904 57 228 5.0 0.0 0.00 0.00 0.00 59 1011.6
20200707075000 57 246 5.0 0.0 0.00 0.00 0.00 59 1012.0
20200707074018 57 247 6.0 0.0 0.00 0.00 0.00 59 1012.0
20200707073003 57 215 3.0 0.0 0.00 0.00 0.00 59 1012.0
20200707072102 58 292 0.0 0.0 0.00 0.00 0.00 59 1012.4
20200707071101 58 247 1.0 0.0 0.00 0.00 0.00 58 1012.4
20200707065205 58 228 2.0 0.0 0.00 0.00 0.00 59 1012.4
20200707064249 58 212 3.0 0.0 0.00 0.00 0.00 59 1012.8
20200707063349 56 224 3.0 0.0 0.00 0.00 0.00 61 1012.8
20200707062354 56 238 3.0 0.0 0.00 0.00 0.00 62 1012.8
20200707061406 57 237 1.0 0.0 0.00 0.00 0.00 59 1012.8
20200707060452 58 222 3.0 0.0 0.00 0.00 0.00 57 1012.8
20200707055548 59 225 4.0 0.0 0.00 0.00 0.00 53 1012.8
20200707054550 60 215 1.0 0.0 0.00 0.00 0.00 53 1012.8
20200707053550 60 247 3.0 0.0 0.00 0.00 0.00 52 1013.2
20200707052650 60 209 0.0 0.0 0.00 0.00 0.00 52 1013.2
20200707051651 60 233 2.0 0.0 0.00 0.00 0.00 52 1013.2
20200707050650 60 223 2.0 0.0 0.00 0.00 0.00 52 1013.2
20200707045650 60 150 0.0 0.0 0.00 0.00 0.00 50 1013.2
20200707044650 60 294 0.0 0.0 0.00 0.00 0.00 51 1013.2
20200707043750 60 232 5.0 0.0 0.00 0.00 0.00 50 1013.2
20200707042752 60 205 2.0 0.0 0.00 0.00 0.00 51 1013.2
20200707041751 60 209 4.0 0.0 0.00 0.00 0.00 50 1013.5
20200707040849 61 227 6.0 0.0 0.00 0.00 0.00 49 1013.5
20200707035948 61 228 5.0 0.0 0.00 0.00 0.00 49 1013.5
20200707034949 60 238 6.0 0.0 0.00 0.00 0.00 49 1013.5
20200707033950 61 236 6.0 0.0 0.00 0.00 0.00 49 1013.5
20200707033051 61 239 6.0 0.0 0.00 0.00 0.00 49 1013.5
20200707032150 61 217 6.0 0.0 0.00 0.00 0.00 48 1013.5
20200707031149 62 225 5.0 0.0 0.00 0.00 0.00 48 1013.5
20200707030150 62 247 5.0 0.0 0.00 0.00 0.00 48 1013.5
20200707025207 62 247 6.0 0.0 0.00 0.00 0.00 48 1013.5
20200707024249 62 241 4.0 0.0 0.00 0.00 0.00 48 1013.5
20200707023348 62 225 3.0 0.0 0.00 0.00 0.00 49 1013.9
20200707022448 62 247 1.0 0.0 0.00 0.00 0.00 49 1013.9
20200707021451 63 246 4.0 0.0 0.00 0.00 0.00 46 1013.9
20200707020549 65 247 3.0 0.0 0.00 0.00 0.00 41 1013.9
20200707015648 67 283 1.0 0.0 0.00 0.00 0.00 40 1013.9
20200707014650 69 281 3.0 0.0 0.00 0.00 0.00 37 1013.9
20200707013748 70 252 3.0 0.0 0.00 0.00 0.00 36 1014.3
20200707012751 70 236 1.0 0.0 0.00 0.00 0.00 38 1014.3
20200707011849 69 316 2.0 0.0 0.00 0.00 0.00 39 1014.3
20200707010048 70 251 2.0 0.0 0.00 0.00 0.00 37 1014.3
20200707005105 70 286 3.0 0.0 0.00 0.00 0.00 36 1014.7
20200707004048 70 213 7.0 0.0 0.00 0.00 0.00 35 1014.7
20200707003050 71 235 9.0 0.0 0.00 0.00 0.00 36 1014.7
20200707002105 71 235 4.0 0.0 0.00 0.00 0.00 36 1014.7
20200707001150 71 222 7.0 0.0 0.00 0.00 0.00 36 1015.1
20200707000215 71 229 6.0 0.0 0.00 0.00 0.00 36 1015.1
20200706235149 70 204 6.0 0.0 0.00 0.00 0.00 37 1015.1
20200706234249 70 230 7.0 0.0 0.00 0.00 0.00 38 1015.1
20200706233304 70 227 5.0 0.0 0.00 0.00 0.00 38 1015.1
20200706232348 70 237 4.0 0.0 0.00 0.00 0.00 40 1015.4
20200706231405 69 200 3.0 0.0 0.00 0.00 0.00 40 1015.4
20200706230350 69 241 5.0 0.0 0.00 0.00 0.00 41 1015.4
20200706225448 69 221 5.0 0.0 0.00 0.00 0.00 40 1015.8
20200706224451 69 261 2.0 0.0 0.00 0.00 0.00 39 1015.8
20200706223548 69 206 4.0 0.0 0.00 0.00 0.00 40 1016.2
20200706222550 69 247 5.0 0.0 0.00 0.00 0.00 40 1016.2
20200706221552 70 250 7.0 0.0 0.00 0.00 0.00 37 1016.2
20200706220649 70 202 4.0 0.0 0.00 0.00 0.00 36 1016.2
20200706215749 71 229 5.0 0.0 0.00 0.00 0.00 38 1016.2
20200706214750 71 228 4.0 0.0 0.00 0.00 0.00 36 1016.2
20200706213848 73 193 1.0 0.0 0.00 0.00 0.00 36 1016.2
20200706212850 71 143 3.0 0.0 0.00 0.00 0.00 37 1016.2
20200706211949 70 242 8.0 0.0 0.00 0.00 0.00 37 1016.2
20200706211005 70 216 2.0 0.0 0.00 0.00 0.00 39 1016.6
20200706210006 70 270 6.0 0.0 0.00 0.00 0.00 37 1016.6
20200706205004 70 178 3.0 0.0 0.00 0.00 0.00 38 1016.6
20200706203950 70 241 5.0 0.0 0.00 0.00 0.00 38 1016.6
20200706202950 70 119 1.0 0.0 0.00 0.00 0.00 39 1016.6